GW4147 Weather Reports


Display with metric or nautical units.
time (UTC)temp
F
wind
direction
speed
MPH
gust
MPH
rain 1hr
in
rain 24hr
in
rain mn
in
humidity
%
barometer
mb
20260506141246 52 354 3.0 9.0 0.00 0.00 0.00 82 1016.3
20260506140744 52 355 3.0 9.0 0.00 0.00 0.00 81 1016.5
20260506140241 52 352 7.0 14.0 0.00 0.00 0.00 81 1015.6
20260506135737 52 44 4.0 9.0 0.00 0.00 0.00 82 1015.5
20260506135234 52 34 7.0 13.0 0.00 0.00 0.00 82 1015.4
20260506134731 52 7 10.0 12.0 0.00 0.00 0.00 82 1015.1
20260506134227 52 31 11.0 15.0 0.00 0.00 0.00 82 1015.1
20260506133724 52 4 5.0 9.0 0.00 0.00 0.00 82 1015.0
20260506133221 52 24 7.0 12.0 0.00 0.00 0.00 82 1015.4
20260506132718 52 353 4.0 11.0 0.00 0.00 0.00 82 1015.4
20260506132215 52 359 10.0 12.0 0.00 0.00 0.00 82 1015.2
20260506131713 52 346 4.0 11.0 0.00 0.00 0.00 83 1015.0
20260506131209 52 16 9.0 13.0 0.00 0.00 0.00 83 1014.9
20260506130705 52 16 9.0 12.0 0.00 0.00 0.00 83 1014.9
20260506130203 52 353 4.0 12.0 0.00 0.00 0.00 83 1014.8
20260506125701 51 25 4.0 8.0 0.00 0.00 0.00 83 1014.8
20260506125158 51 37 8.0 11.0 0.00 0.00 0.00 83 1014.6
20260506124656 51 352 6.0 10.0 0.00 0.00 0.00 83 1014.6
20260506124154 51 8 3.0 11.0 0.00 0.00 0.00 83 1014.9
20260506123651 51 14 11.0 11.0 0.00 0.00 0.00 83 1014.7
20260506123150 51 39 8.0 9.0 0.00 0.00 0.00 83 1014.5
20260506122646 51 344 8.0 11.0 0.00 0.00 0.00 83 1014.7
20260506122144 51 3 9.0 13.0 0.00 0.00 0.00 83 1014.6
20260506121641 51 350 5.0 11.0 0.00 0.00 0.00 83 1014.5
20260506121137 51 351 5.0 13.0 0.00 0.00 0.00 83 1014.4
20260506120636 52 2 7.0 11.0 0.00 0.00 0.00 83 1014.3
20260506120132 52 1 6.0 9.0 0.00 0.00 0.00 82 1014.5
20260506115631 52 9 7.0 11.0 0.00 0.00 0.00 82 1014.4
20260506115129 52 356 6.0 9.0 0.00 0.00 0.00 82 1014.4
20260506114626 52 23 6.0 15.0 0.00 0.00 0.00 82 1014.1
20260506114124 52 350 5.0 9.0 0.00 0.00 0.00 81 1014.3
20260506113622 52 322 7.0 14.0 0.00 0.00 0.00 81 1014.0
20260506113119 52 9 7.0 12.0 0.00 0.00 0.00 81 1013.7
20260506112615 52 1 9.0 11.0 0.00 0.00 0.00 80 1013.9
20260506112113 53 53 5.0 8.0 0.00 0.00 0.00 79 1013.6
20260506111610 53 23 9.0 10.0 0.00 0.00 0.00 78 1013.6
20260506111108 53 4 4.0 6.0 0.00 0.00 0.00 78 1013.7
20260506110605 53 9 5.0 10.0 0.00 0.00 0.00 77 1013.7
20260506105558 53 356 5.0 12.0 0.00 0.00 0.00 76 1013.3
20260506105056 54 8 4.0 10.0 0.00 0.00 0.00 76 1013.3
20260506104554 54 4 4.0 7.0 0.00 0.00 0.00 76 1013.0
20260506104051 54 351 5.0 9.0 0.00 0.00 0.00 76 1013.3
20260506103548 54 9 5.0 9.0 0.00 0.00 0.00 76 1013.1
20260506103045 54 331 8.0 10.0 0.00 0.00 0.00 76 1013.2
20260506102543 54 342 8.0 11.0 0.00 0.00 0.00 76 1013.1
20260506102040 54 23 7.0 12.0 0.00 0.00 0.00 76 1013.0
20260506101537 54 9 8.0 14.0 0.00 0.00 0.00 75 1013.0
20260506101034 54 352 8.0 11.0 0.00 0.00 0.00 75 1013.0
20260506100532 54 358 10.0 13.0 0.00 0.00 0.00 74 1012.7
20260506100030 54 323 7.0 9.0 0.00 0.00 0.00 74 1012.6
20260506095529 54 27 6.0 12.0 0.00 0.00 0.00 73 1012.6
20260506095024 54 11 6.0 9.0 0.00 0.00 0.00 73 1012.6
20260506094522 54 7 6.0 9.0 0.00 0.00 0.00 73 1012.5
20260506094020 55 0 7.0 9.0 0.00 0.00 0.00 73 1012.4
20260506093518 55 28 2.0 9.0 0.00 0.00 0.00 74 1012.1
20260506093015 55 24 3.0 9.0 0.00 0.00 0.00 74 1012.1
20260506092513 55 26 4.0 9.0 0.00 0.00 0.00 73 1012.2
20260506092009 55 30 5.0 10.0 0.00 0.00 0.00 73 1012.3
20260506091508 55 22 6.0 8.0 0.00 0.00 0.00 74 1012.1
20260506091005 55 348 6.0 12.0 0.00 0.00 0.00 73 1012.1
20260506090503 55 343 4.0 9.0 0.00 0.00 0.00 73 1012.1
20260506085958 55 352 4.0 11.0 0.00 0.00 0.00 73 1012.0
20260506085456 55 9 7.0 9.0 0.00 0.00 0.00 74 1011.8
20260506084952 55 22 6.0 9.0 0.00 0.00 0.00 73 1011.8
20260506084449 55 2 5.0 13.0 0.00 0.00 0.00 73 1011.8
20260506083945 55 341 4.0 7.0 0.00 0.00 0.00 73 1011.8
20260506083443 55 346 5.0 9.0 0.00 0.00 0.00 74 1012.1
20260506082940 55 358 5.0 10.0 0.00 0.00 0.00 74 1011.9
20260506082437 55 348 7.0 10.0 0.00 0.00 0.00 74 1011.8
20260506081932 56 9 7.0 9.0 0.00 0.00 0.00 75 1011.7
20260506081431 56 348 3.0 8.0 0.00 0.00 0.00 75 1011.8
20260506080928 56 24 3.0 8.0 0.00 0.00 0.00 75 1011.8
20260506080424 56 345 8.0 12.0 0.00 0.00 0.00 75 1011.7
20260506073409 56 40 6.0 9.0 0.00 0.00 0.00 75 1011.1
20260506072906 55 353 3.0 8.0 0.00 0.00 0.00 76 1011.0
20260506072403 56 12 6.0 9.0 0.00 0.00 0.00 75 1011.0
20260506071900 56 22 5.0 12.0 0.00 0.00 0.00 76 1011.1
20260506071359 56 22 3.0 9.0 0.00 0.00 0.00 76 1011.1
20260506070855 56 53 11.0 11.0 0.00 0.00 0.00 76 1011.0
20260506070352 56 22 7.0 12.0 0.00 0.00 0.00 76 1010.9
20260506062329 57 24 6.0 10.0 0.00 0.00 0.00 76 1011.6
20260506061825 57 40 3.0 11.0 0.00 0.00 0.00 76 1011.3
20260506061322 57 44 3.0 7.0 0.00 0.00 0.00 77 1011.5
20260506060820 57 337 5.0 8.0 0.00 0.00 0.00 77 1011.5
20260506060318 57 20 10.0 10.0 0.00 0.00 0.00 77 1011.2
20260506051249 58 7 5.0 13.0 0.00 0.00 0.00 76 1011.3
20260506050747 58 339 8.0 11.0 0.00 0.00 0.00 76 1011.3
20260506050244 59 31 7.0 11.0 0.00 0.00 0.00 76 1011.5
20260506044735 59 19 5.0 11.0 0.00 0.00 0.00 78 1011.5
20260506044232 59 356 6.0 8.0 0.00 0.00 0.00 78 1011.3
20260506043730 59 352 5.0 12.0 0.00 0.00 0.00 78 1011.2
20260506043227 59 25 4.0 11.0 0.00 0.00 0.00 78 1011.3
20260506042726 59 12 5.0 10.0 0.00 0.00 0.00 78 1011.7
20260506042224 59 16 8.0 12.0 0.00 0.00 0.00 78 1011.3
20260506041722 60 358 7.0 9.0 0.00 0.00 0.00 78 1011.5
20260506041219 60 350 5.0 11.0 0.00 0.00 0.00 79 1011.0
20260506040716 60 352 6.0 12.0 0.00 0.00 0.00 79 1011.1
20260506040213 60 22 2.0 6.0 0.00 0.00 0.00 79 1011.2
20260506035710 60 4 9.0 12.0 0.00 0.00 0.00 78 1011.0
20260506035207 60 345 4.0 9.0 0.00 0.00 0.00 79 1010.8
20260506034703 60 352 5.0 13.0 0.00 0.00 0.00 79 1011.1
20260506034201 61 356 7.0 12.0 0.00 0.00 0.00 78 1010.9
20260506033658 61 13 7.0 11.0 0.00 0.00 0.00 79 1010.6
20260506033155 61 41 6.0 11.0 0.00 0.00 0.00 78 1010.7
20260506032652 61 3 5.0 13.0 0.00 0.00 0.00 78 1010.5
20260506032149 61 349 11.0 11.0 0.00 0.00 0.00 78 1010.6
20260506031645 61 14 4.0 9.0 0.00 0.00 0.00 78 1010.7
20260506031142 62 356 6.0 11.0 0.00 0.00 0.00 77 1010.7
20260506030641 62 350 5.0 11.0 0.00 0.00 0.00 77 1010.7
20260506030138 62 354 6.0 10.0 0.00 0.00 0.00 78 1010.4
20260506025635 62 17 5.0 13.0 0.00 0.00 0.00 77 1010.5
20260506025131 62 20 3.0 10.0 0.00 0.00 0.00 77 1010.2
20260506024629 62 344 4.0 11.0 0.00 0.00 0.00 77 1010.2
20260506024124 63 348 3.0 10.0 0.00 0.00 0.00 77 1009.9
20260506023621 63 342 7.0 11.0 0.00 0.00 0.00 77 1009.9
20260506023118 63 15 6.0 13.0 0.00 0.00 0.00 77 1009.9
20260506022615 63 350 6.0 10.0 0.00 0.00 0.00 77 1009.8
20260506022113 64 12 7.0 9.0 0.00 0.00 0.00 77 1009.3
20260506021610 64 37 6.0 12.0 0.00 0.00 0.00 76 1008.9
20260506021108 65 346 5.0 11.0 0.00 0.00 0.00 76 1009.0
20260506020604 65 11 9.0 11.0 0.00 0.00 0.00 75 1009.0
20260506015559 66 326 6.0 7.0 0.00 0.00 0.00 75 1008.8
20260506015056 66 351 6.0 8.0 0.00 0.00 0.00 74 1008.6
20260506014554 66 1 4.0 7.0 0.00 0.00 0.00 74 1008.4
20260506014049 67 335 8.0 10.0 0.00 0.00 0.00 74 1008.5
20260506013548 67 3 4.0 11.0 0.00 0.00 0.00 74 1008.1
20260506013044 67 14 7.0 9.0 0.00 0.00 0.00 74 1008.1
20260506012540 67 56 5.0 9.0 0.00 0.00 0.00 74 1008.2
20260506012037 68 353 4.0 11.0 0.00 0.00 0.00 74 1008.6
20260506011535 68 15 6.0 9.0 0.00 0.00 0.00 74 1008.2
20260506011031 68 13 4.0 6.0 0.00 0.00 0.00 73 1007.7
20260506010530 68 345 2.0 5.0 0.00 0.00 0.00 73 1007.7
20260506010026 69 343 2.0 8.0 0.00 0.00 0.00 72 1007.8
20260506005523 69 336 9.0 11.0 0.00 0.00 0.00 72 1007.5
20260506005019 69 352 7.0 11.0 0.00 0.00 0.00 71 1007.2
20260506004517 69 333 4.0 11.0 0.00 0.00 0.00 71 1007.2
20260506004013 69 10 4.0 10.0 0.00 0.00 0.00 70 1006.9
20260506003510 70 9 5.0 13.0 0.00 0.00 0.00 70 1007.0
20260506003006 70 331 6.0 11.0 0.00 0.00 0.00 69 1006.8
20260506002502 70 354 9.0 14.0 0.00 0.00 0.00 69 1006.9
20260506001957 71 328 7.0 10.0 0.00 0.00 0.00 68 1006.9
20260506001454 71 12 6.0 10.0 0.00 0.00 0.00 68 1006.9
20260506000952 71 317 9.0 13.0 0.00 0.00 0.00 67 1007.1
20260506000449 71 358 6.0 12.0 0.00 0.00 0.00 67 1007.1
20260505235946 71 325 7.0 11.0 0.00 0.00 0.00 68 1006.9
20260505235444 72 337 11.0 12.0 0.00 0.00 0.00 68 1006.9
20260505234940 72 335 7.0 15.0 0.00 0.00 0.00 67 1006.8
20260505234438 72 351 8.0 12.0 0.00 0.00 0.00 67 1007.1
20260505233934 73 323 9.0 11.0 0.00 0.00 0.00 66 1007.0
20260505233432 73 340 9.0 16.0 0.00 0.00 0.00 66 1006.9
20260505232930 73 334 7.0 15.0 0.00 0.00 0.00 66 1006.7
20260505232428 74 334 9.0 11.0 0.00 0.00 0.00 66 1006.1
20260505231924 74 308 6.0 12.0 0.00 0.00 0.00 66 1006.4
20260505231422 75 336 9.0 16.0 0.00 0.00 0.00 65 1006.4
20260505230919 75 354 8.0 13.0 0.00 0.00 0.00 64 1006.8
20260505230417 76 20 6.0 14.0 0.00 0.00 0.00 63 1006.7
20260505225913 77 342 8.0 14.0 0.00 0.00 0.00 62 1006.3
20260505225411 77 326 5.0 10.0 0.00 0.00 0.00 61 1006.0
20260505224912 77 339 12.0 14.0 0.00 0.00 0.00 61 1006.3
20260505224409 78 328 6.0 11.0 0.00 0.00 0.00 61 1006.0
20260505223906 78 325 9.0 13.0 0.00 0.00 0.00 60 1005.8
20260505223403 79 325 7.0 15.0 0.00 0.00 0.00 60 1006.0
20260505222859 80 329 5.0 11.0 0.00 0.00 0.00 60 1006.0
20260505222355 80 346 7.0 16.0 0.00 0.00 0.00 58 1005.6
20260505221852 81 339 9.0 16.0 0.00 0.00 0.00 58 1005.6
20260505221349 83 327 7.0 10.0 0.00 0.00 0.00 56 1005.5
20260505220846 84 332 5.0 13.0 0.00 0.00 0.00 52 1005.5
20260505220343 85 332 7.0 13.0 0.00 0.00 0.00 51 1005.3
20260505215841 85 329 7.0 10.0 0.00 0.00 0.00 49 1005.2
20260505215339 85 306 5.0 13.0 0.00 0.00 0.00 49 1005.4
20260505214837 84 327 3.0 8.0 0.00 0.00 0.00 48 1005.2
20260505214334 84 323 4.0 12.0 0.00 0.00 0.00 47 1005.1
20260505213831 84 337 5.0 13.0 0.00 0.00 0.00 46 1005.3
20260505213329 85 307 4.0 15.0 0.00 0.00 0.00 44 1005.4
20260505212824 86 331 6.0 10.0 0.00 0.00 0.00 44 1005.4
20260505212322 86 315 4.0 9.0 0.00 0.00 0.00 44 1005.4
20260505211818 86 348 7.0 13.0 0.00 0.00 0.00 41 1005.5
20260505211316 87 288 7.0 14.0 0.00 0.00 0.00 41 1005.3
20260505210812 87 334 7.0 13.0 0.00 0.00 0.00 40 1005.3
20260505210309 87 312 10.0 16.0 0.00 0.00 0.00 41 1005.4
20260505205806 88 311 8.0 13.0 0.00 0.00 0.00 43 1005.5
20260505205305 89 317 5.0 9.0 0.00 0.00 0.00 45 1005.4
20260505204800 89 239 4.0 13.0 0.00 0.00 0.00 49 1005.6
20260505204258 88 213 6.0 11.0 0.00 0.00 0.00 53 1005.5
20260505203755 87 183 5.0 9.0 0.00 0.00 0.00 54 1005.6
20260505203252 87 282 6.0 6.0 0.00 0.00 0.00 54 1005.4
20260505202748 87 231 7.0 11.0 0.00 0.00 0.00 56 1005.5
20260505202244 85 214 6.0 8.0 0.00 0.00 0.00 58 1005.5
20260505201741 85 214 6.0 11.0 0.00 0.00 0.00 59 1005.7
20260505201238 85 217 5.0 12.0 0.00 0.00 0.00 58 1005.8
20260505200737 85 225 5.0 9.0 0.00 0.00 0.00 59 1005.8
20260505200234 85 213 8.0 13.0 0.00 0.00 0.00 57 1005.8
20260505195729 85 242 6.0 14.0 0.00 0.00 0.00 60 1005.7
20260505195227 85 224 5.0 12.0 0.00 0.00 0.00 58 1005.5
20260505194724 85 249 5.0 9.0 0.00 0.00 0.00 60 1005.9
20260505194220 85 213 13.0 14.0 0.00 0.00 0.00 58 1005.7
20260505193716 86 215 8.0 10.0 0.00 0.00 0.00 61 1005.6
20260505193213 85 239 2.0 8.0 0.00 0.00 0.00 62 1006.0
20260505192712 86 216 8.0 12.0 0.00 0.00 0.00 60 1005.9
20260505192209 85 214 9.0 13.0 0.00 0.00 0.00 62 1005.8
20260505191707 86 174 6.0 10.0 0.00 0.00 0.00 61 1005.5
20260505191205 85 263 2.0 9.0 0.00 0.00 0.00 64 1005.9
20260505190702 84 196 5.0 8.0 0.00 0.00 0.00 65 1005.6
20260505190201 83 220 8.0 13.0 0.00 0.00 0.00 64 1005.7
20260505185658 84 197 3.0 13.0 0.00 0.00 0.00 64 1005.6
20260505185154 84 220 4.0 8.0 0.00 0.00 0.00 64 1005.6
20260505184651 84 212 7.0 9.0 0.00 0.00 0.00 64 1005.6
20260505184148 84 229 3.0 11.0 0.00 0.00 0.00 63 1005.4
20260505183645 84 230 2.0 7.0 0.00 0.00 0.00 64 1005.8
20260505183142 84 239 5.0 7.0 0.00 0.00 0.00 64 1005.8
20260505182638 84 223 5.0 11.0 0.00 0.00 0.00 65 1005.9
20260505182136 83 168 2.0 11.0 0.00 0.00 0.00 65 1005.7
20260505181632 83 231 1.0 4.0 0.00 0.00 0.00 65 1005.6
20260505181130 83 180 7.0 12.0 0.00 0.00 0.00 65 1005.8
20260505180625 82 209 7.0 10.0 0.00 0.00 0.00 65 1005.9
20260505180123 83 185 6.0 7.0 0.00 0.00 0.00 65 1006.0
20260505175619 82 197 7.0 10.0 0.00 0.00 0.00 65 1005.8
20260505175115 82 256 3.0 9.0 0.00 0.00 0.00 68 1005.9
20260505174612 82 249 3.0 11.0 0.00 0.00 0.00 67 1005.8
20260505174108 81 135 4.0 8.0 0.00 0.00 0.00 69 1006.0
20260505173605 80 185 10.0 13.0 0.00 0.00 0.00 68 1005.9
20260505173102 80 207 8.0 12.0 0.00 0.00 0.00 69 1005.8
20260505172559 80 188 3.0 11.0 0.00 0.00 0.00 69 1005.8
20260505172056 80 213 6.0 11.0 0.00 0.00 0.00 68 1005.7
20260505171550 80 229 5.0 11.0 0.00 0.00 0.00 70 1005.8
20260505171048 79 205 6.0 9.0 0.00 0.00 0.00 71 1005.7
20260505170544 78 210 9.0 11.0 0.00 0.00 0.00 71 1005.7
20260505170041 78 205 6.0 6.0 0.00 0.00 0.00 73 1005.8
20260505165536 78 193 7.0 11.0 0.00 0.00 0.00 72 1005.8
20260505165032 78 207 4.0 12.0 0.00 0.00 0.00 72 1005.7
20260505164528 78 141 3.0 8.0 0.00 0.00 0.00 72 1005.8
20260505164026 78 201 5.0 11.0 0.00 0.00 0.00 72 1005.7
20260505163525 77 151 2.0 10.0 0.00 0.00 0.00 72 1005.7
20260505163021 77 198 8.0 14.0 0.00 0.00 0.00 73 1005.7
20260505162514 77 146 4.0 8.0 0.00 0.00 0.00 74 1005.8
20260505162011 76 147 2.0 10.0 0.00 0.00 0.00 74 1005.7
20260505161508 76 215 5.0 12.0 0.00 0.00 0.00 74 1005.7
20260505161005 76 206 6.0 10.0 0.00 0.00 0.00 74 1005.7
20260505160503 77 202 9.0 14.0 0.00 0.00 0.00 73 1005.8
20260505152939 78 180 8.0 11.0 0.00 0.00 0.00 73 1005.5
20260505152438 77 276 3.0 8.0 0.00 0.00 0.00 76 1005.1
20260505151937 76 145 5.0 14.0 0.00 0.00 0.00 75 1005.2
20260505151433 76 207 6.0 11.0 0.00 0.00 0.00 76 1005.2
20260505150931 75 193 3.0 11.0 0.00 0.00 0.00 77 1005.5
20260505150427 75 192 2.0 14.0 0.00 0.00 0.00 78 1005.4